Location: Lake Harris Campground
(43.9775°N, 74.1317°W)
Time: 16:27:18
(UTC-05:00)

ISS - All Passes

Search period start: 17 February 2018 00:00
Search period end: 27 February 2018 00:00
Orbit: 403 x 407 km, 51.6° (Epoch: 18 February)

Date Brightness Start Highest point End Pass type
(mag) Time Alt. Az. Time Alt. Az. Time Alt. Az.
17 Feb - 09:35:38 10° SSW 09:38:39 36° SE 09:41:41 10° ENE daylight
17 Feb - 11:12:02 10° W 11:15:07 38° NNW 11:18:14 10° NE daylight
17 Feb - 12:49:40 10° NW 12:52:14 21° N 12:54:48 10° NE daylight
17 Feb - 14:26:26 10° NW 14:29:24 31° NNE 14:32:21 10° E daylight
17 Feb - 16:02:50 10° WNW 16:06:02 55° SW 16:09:13 10° SE daylight
18 Feb - 08:44:09 10° S 08:46:37 20° SE 08:49:06 10° E daylight
18 Feb - 10:19:38 10° WSW 10:22:51 59° NNW 10:26:05 10° NE daylight
18 Feb - 11:57:09 10° WNW 11:59:49 22° N 12:02:28 10° NE daylight
18 Feb - 13:34:16 10° NW 13:37:02 24° NNE 13:39:48 10° ENE daylight
18 Feb - 15:10:35 10° WNW 15:13:52 83° NE 15:17:08 10° ESE daylight
18 Feb - 16:48:13 10° W 16:49:56 14° SW 16:51:39 10° SSW daylight
19 Feb - 07:53:41 10° SSE 07:54:39 11° SE 07:55:38 10° ESE daylight
19 Feb - 09:27:22 10° SW 09:30:38 82° SSE 09:33:54 10° ENE daylight
19 Feb - 11:04:34 10° WNW 11:07:24 26° NNW 11:10:14 10° NE daylight
19 Feb - 12:41:59 10° NW 12:44:36 21° N 12:47:14 10° ENE daylight
19 Feb - 14:18:25 10° NW 14:21:38 50° NNE 14:24:48 10° ESE daylight
19 Feb - 15:55:13 10° W 15:57:56 24° SW 16:00:38 10° SSE daylight
20 Feb - 08:35:21 10° SW 08:38:28 44° SE 08:41:37 10° ENE daylight
20 Feb - 10:12:00 10° W 10:15:02 34° NNW 10:18:04 10° NE daylight
20 Feb - 11:49:36 10° NW 11:52:10 21° N 11:54:44 10° NE daylight
20 Feb - 13:26:15 10° NW 13:29:18 34° NNE 13:32:20 10° E daylight
20 Feb - 15:02:43 10° WNW 15:05:51 44° SW 15:08:58 10° SE daylight
21 Feb - 07:43:39 10° SSW 07:46:22 24° SE 07:49:07 10° E daylight
21 Feb - 09:19:30 10° WSW 09:22:41 49° NNW 09:25:54 10° NE daylight
21 Feb - 10:57:05 10° WNW 10:59:42 21° N 11:02:20 10° NE daylight
21 Feb - 12:34:04 10° NW 12:36:54 26° NNE 12:39:44 10° ENE daylight
21 Feb - 14:10:24 10° WNW 14:13:40 81° SSW 14:16:56 10° SE daylight
21 Feb - 15:48:45 10° WSW 15:49:39 11° SW 15:50:32 10° SSW daylight
22 Feb - 06:52:35 10° SSE 06:54:20 14° SE 06:56:06 10° E daylight
22 Feb - 08:27:08 10° WSW 08:30:24 82° NNW 08:33:42 10° ENE daylight
22 Feb - 10:04:28 10° WNW 10:07:15 24° NNW 10:10:01 10° NE daylight
22 Feb - 11:41:47 10° NW 11:44:28 22° N 11:47:08 10° ENE daylight
22 Feb - 13:18:10 10° NW 13:21:25 59° NNE 13:24:39 10° ESE daylight
22 Feb - 14:55:11 10° W 14:57:38 20° SW 15:00:05 10° S daylight
23 Feb - 07:34:58 10° SW 07:38:11 56° SE 07:41:24 10° ENE daylight
23 Feb - 09:11:51 10° W 09:14:49 30° NNW 09:17:47 10° NE daylight
23 Feb - 10:49:24 10° NW 10:51:59 21° N 10:54:33 10° NE daylight
23 Feb - 12:25:58 10° NW 12:29:05 38° NNE 12:32:10 10° E daylight
23 Feb - 14:02:30 10° WNW 14:05:32 35° SW 14:08:33 10° SSE daylight
24 Feb - 06:43:06 10° SSW 06:46:01 30° SE 06:48:57 10° ENE daylight
24 Feb - 08:19:17 10° W 08:22:25 43° NNW 08:25:35 10° NE daylight
24 Feb - 09:56:53 10° NW 09:59:29 21° N 10:02:04 10° NE daylight
24 Feb - 11:33:45 10° NW 11:36:40 28° NNE 11:39:33 10° E daylight
24 Feb - 13:10:06 10° WNW 13:13:21 66° SW 13:16:35 10° SE daylight
25 Feb - 05:51:43 10° S 05:53:55 17° SE 05:56:08 10° E visible
25 Feb - 07:26:49 10° WSW 07:30:04 68° NNW 07:33:21 10° NE daylight
25 Feb - 09:04:17 10° WNW 09:06:59 23° N 09:09:41 10° NE daylight
25 Feb - 10:41:29 10° NW 10:44:11 23° N 10:46:55 10° ENE daylight
25 Feb - 12:17:49 10° NW 12:21:05 71° NNE 12:24:20 10° ESE daylight
25 Feb - 13:55:06 10° W 13:57:12 16° SW 13:59:19 10° S daylight
26 Feb - 06:34:32 10° SW 06:37:47 69° SE 06:41:03 10° ENE daylight
26 Feb - 08:11:36 10° WNW 08:14:30 28° NNW 08:17:23 10° NE daylight
26 Feb - 09:49:05 10° NW 09:51:41 21° N 09:54:16 10° ENE daylight
26 Feb - 11:25:33 10° NW 11:28:44 44° NNE 11:31:52 10° E daylight
26 Feb - 13:02:13 10° WNW 13:05:06 29° SW 13:07:58 10° SSE daylight
